Location: Boulder, CO
(40.0083°N, 105.2472°W)
Time: 00:58:21
(UTC-06:00)

SORCE - Visible Passes

Search period start: 24 June 2017 00:00
Search period end: 04 July 2017 00:00
Orbit: 585 x 619 km, 40.0° (Epoch: 23 June)

Date Brightness Start Highest point End Pass type
(mag) Time Alt. Az. Time Alt. Az. Time Alt. Az.
24 Jun 7.6 04:15:44 14° SSW 04:18:26 23° SSE 04:22:04 10° E visible
25 Jun 6.9 04:25:55 15° SW 04:29:09 36° SSE 04:33:20 10° E visible
26 Jun 8.0 02:59:24 16° SE 02:59:24 16° SE 03:01:27 10° ESE visible
26 Jun 6.4 04:36:05 13° SW 04:39:58 52° SSE 04:44:25 10° E visible
27 Jun 7.3 03:09:31 26° SE 03:09:31 26° SE 03:13:06 10° E visible
27 Jun 6.1 04:46:21 10° WSW 04:50:51 70° SSE 04:55:24 10° E visible
28 Jun 6.6 03:19:37 38° S 03:20:05 39° SSE 03:24:19 10° E visible
28 Jun 6.0 04:57:16 10° W 05:01:47 85° S 05:06:22 10° E visible
29 Jun 6.1 03:29:40 41° SW 03:30:55 56° SSE 03:35:21 10° E visible
30 Jun 8.2 02:03:04 15° E 02:03:04 15° E 02:04:07 10° E visible
30 Jun 5.9 03:39:44 31° WSW 03:41:49 74° SSE 03:46:20 10° E visible
01 Jul 7.6 02:13:07 25° ESE 02:13:07 25° ESE 02:15:17 10° E visible
01 Jul 5.9 03:49:47 21° W 03:52:45 87° S 03:57:18 10° E visible
02 Jul 6.8 02:23:11 41° ESE 02:23:11 41° ESE 02:26:18 10° E visible
02 Jul 6.0 03:59:51 14° W 04:03:43 88° N 04:08:17 10° E visible
03 Jul 6.0 02:33:17 66° ESE 02:33:17 66° ESE 02:37:17 10° E visible
03 Jul 6.0 04:10:11 10° W 04:14:41 88° S 04:19:14 10° E visible
